SAS242F ENGM-EKCH

Flight info

Callsign SAS242F
Flight time 0h 50m
Altitude 31000
Route OKSAT L996 GETPA/N0443F370 L996 KELIN DCT TOPLA L996 ERNOV
Aircraft A319/M-A1B1D1O1S2/LB1

Departure

Time 2026-05-03 22:18
Airport Oslo-Gardermoen International Airport (ENGM)

Arrival

Time 2026-05-03 23:09
Airport Copenhagen Kastrup Airport (EKCH)
Time Latitude Longitude Altitude Speed Heading
2026-05-03 21:57 60.19520 11.10144 685 ft 0 kts 264°
2026-05-03 22:10 60.19521 11.10155 685 ft 4 kts 264°
2026-05-03 22:11 60.19523 11.10209 679 ft 4 kts 264°
2026-05-03 22:11 60.19526 11.10262 680 ft 4 kts 264°
2026-05-03 22:11 60.19528 11.10305 679 ft 4 kts 260°
2026-05-03 22:11 60.19536 11.10355 678 ft 4 kts 242°
2026-05-03 22:12 60.19541 11.10375 677 ft 0 kts 241°
2026-05-03 22:14 60.19540 11.10372 682 ft 1 kts 233°
2026-05-03 22:14 60.19526 11.10389 681 ft 5 kts 129°
2026-05-03 22:14 60.19519 11.10520 683 ft 13 kts 99°
2026-05-03 22:14 60.19490 11.10742 681 ft 20 kts 105°
2026-05-03 22:15 60.19454 11.10987 683 ft 14 kts 107°
2026-05-03 22:15 60.19425 11.11188 683 ft 12 kts 105°
2026-05-03 22:15 60.19474 11.11314 682 ft 16 kts 14°
2026-05-03 22:15 60.19599 11.11385 683 ft 21 kts 16°
2026-05-03 22:16 60.19754 11.11474 684 ft 24 kts 16°
2026-05-03 22:16 60.19886 11.11551 685 ft 20 kts 15°
2026-05-03 22:16 60.20024 11.11629 686 ft 16 kts 15°
2026-05-03 22:16 60.20122 11.11687 687 ft 16 kts 16°
2026-05-03 22:17 60.20164 11.11876 684 ft 21 kts 106°
2026-05-03 22:17 60.20131 11.12105 690 ft 13 kts 106°
2026-05-03 22:17 60.20103 11.12221 688 ft 6 kts 154°
2026-05-03 22:17 60.19900 11.12125 688 ft 64 kts 196°
2026-05-03 22:18 60.19259 11.11752 680 ft 126 kts 196°
2026-05-03 22:18 60.18280 11.11191 948 ft 151 kts 195°
2026-05-03 22:18 60.17298 11.10641 1759 ft 147 kts 196°
2026-05-03 22:18 60.16250 11.10038 2219 ft 167 kts 197°
2026-05-03 22:19 60.15069 11.09345 2657 ft 190 kts 198°
2026-05-03 22:19 60.13668 11.08969 3100 ft 220 kts 172°
2026-05-03 22:19 60.12693 11.09724 3500 ft 240 kts 151°
2026-05-03 22:19 60.10978 11.13003 4532 ft 264 kts 136°
2026-05-03 22:20 60.10135 11.14814 5153 ft 270 kts 135°
2026-05-03 22:20 60.08851 11.17613 6161 ft 275 kts 137°
2026-05-03 22:20 60.07289 11.19820 7072 ft 277 kts 155°
2026-05-03 22:20 60.05563 11.21610 8037 ft 280 kts 156°
2026-05-03 22:21 60.03820 11.23424 8972 ft 285 kts 156°
2026-05-03 22:21 60.02042 11.25272 9889 ft 291 kts 156°
2026-05-03 22:21 60.00184 11.27197 10367 ft 312 kts 157°
2026-05-03 22:21 59.98197 11.29251 10875 ft 327 kts 157°
2026-05-03 22:22 59.96156 11.31371 11620 ft 333 kts 156°
2026-05-03 22:22 59.94091 11.33525 12436 ft 337 kts 157°
2026-05-03 22:22 59.92001 11.35706 13236 ft 342 kts 158°
2026-05-03 22:22 59.89882 11.37911 13987 ft 346 kts 158°
2026-05-03 22:23 59.87734 11.40136 14681 ft 350 kts 158°
2026-05-03 22:23 59.85563 11.42378 15393 ft 354 kts 158°
2026-05-03 22:23 59.83368 11.44645 16108 ft 357 kts 158°
2026-05-03 22:23 59.81151 11.46929 16816 ft 361 kts 159°
2026-05-03 22:24 59.78911 11.49227 17524 ft 365 kts 159°
2026-05-03 22:24 59.76643 11.51556 18214 ft 369 kts 159°
2026-05-03 22:24 59.74354 11.53902 18832 ft 372 kts 159°
2026-05-03 22:24 59.72042 11.56267 19465 ft 375 kts 159°
2026-05-03 22:25 59.69717 11.58642 20101 ft 377 kts 160°
2026-05-03 22:25 59.67376 11.61028 20715 ft 380 kts 160°
2026-05-03 22:25 59.65014 11.63427 21269 ft 383 kts 160°
2026-05-03 22:25 59.62638 11.65838 21862 ft 385 kts 160°
2026-05-03 22:26 59.60248 11.68258 22460 ft 388 kts 160°
2026-05-03 22:26 59.57839 11.70702 23035 ft 391 kts 160°
2026-05-03 22:26 59.55412 11.73164 23557 ft 394 kts 161°
2026-05-03 22:26 59.52968 11.75633 24033 ft 396 kts 161°
2026-05-03 22:27 59.50510 11.78109 24498 ft 398 kts 161°
2026-05-03 22:27 59.48036 11.80598 24948 ft 400 kts 161°
2026-05-03 22:27 59.45551 11.83099 25412 ft 402 kts 162°
2026-05-03 22:27 59.43053 11.85605 25884 ft 404 kts 162°
2026-05-03 22:28 59.40545 11.88114 26352 ft 406 kts 162°
2026-05-03 22:28 59.38021 11.90633 26818 ft 407 kts 162°
2026-05-03 22:28 59.35513 11.93004 27246 ft 403 kts 168°
2026-05-03 22:28 59.32867 11.94610 27666 ft 393 kts 177°
2026-05-03 22:29 59.30187 11.95284 28119 ft 385 kts 186°
2026-05-03 22:29 59.27534 11.95139 28575 ft 381 kts 192°
2026-05-03 22:29 59.24886 11.94834 29036 ft 382 kts 191°
2026-05-03 22:29 59.22227 11.94540 29490 ft 384 kts 191°
2026-05-03 22:30 59.19551 11.94256 29925 ft 385 kts 191°
2026-05-03 22:30 59.16869 11.93974 30282 ft 387 kts 192°
2026-05-03 22:30 59.14176 11.93685 30644 ft 389 kts 192°
2026-05-03 22:30 59.11471 11.93395 30981 ft 390 kts 192°
2026-05-03 22:31 59.08752 11.93100 31316 ft 392 kts 192°
2026-05-03 22:31 59.06020 11.92801 31659 ft 394 kts 192°
2026-05-03 22:31 59.03291 11.92505 32071 ft 392 kts 191°
2026-05-03 22:31 59.00568 11.92217 32568 ft 390 kts 191°
2026-05-03 22:32 58.97863 11.91936 33054 ft 389 kts 191°
2026-05-03 22:32 58.95170 11.91651 33542 ft 387 kts 192°
2026-05-03 22:32 58.92489 11.91365 33986 ft 385 kts 192°
2026-05-03 22:32 58.89811 11.91077 34303 ft 386 kts 191°
2026-05-03 22:33 58.87126 11.90783 34560 ft 388 kts 191°
2026-05-03 22:33 58.84426 11.90493 34763 ft 390 kts 191°
2026-05-03 22:33 58.81718 11.90249 34824 ft 387 kts 188°
2026-05-03 22:34 58.76317 11.91441 34806 ft 391 kts 180°
2026-05-03 22:34 58.70973 11.92908 34832 ft 390 kts 180°
2026-05-03 22:35 58.65599 11.94355 34831 ft 390 kts 180°
2026-05-03 22:35 58.60224 11.95810 34834 ft 390 kts 181°
2026-05-03 22:36 58.54854 11.97254 34834 ft 390 kts 180°
2026-05-03 22:36 58.49485 11.98703 34833 ft 390 kts 180°
2026-05-03 22:37 58.44117 12.00153 34801 ft 390 kts 180°
2026-05-03 22:37 58.38743 12.01598 34806 ft 390 kts 180°
2026-05-03 22:38 58.33366 12.03033 34811 ft 390 kts 180°
2026-05-03 22:38 58.27980 12.04458 34814 ft 391 kts 180°
2026-05-03 22:39 58.22598 12.05878 34820 ft 390 kts 180°
2026-05-03 22:39 58.17216 12.07301 34822 ft 391 kts 180°
2026-05-03 22:40 58.11835 12.08725 34823 ft 390 kts 180°
2026-05-03 22:40 58.06456 12.10138 34824 ft 390 kts 180°
2026-05-03 22:41 58.01071 12.11553 34828 ft 390 kts 180°
2026-05-03 22:41 57.95690 12.12961 34829 ft 390 kts 180°
2026-05-03 22:42 57.90312 12.14353 34829 ft 390 kts 180°
2026-05-03 22:42 57.84932 12.15744 34804 ft 390 kts 180°
2026-05-03 22:43 57.79558 12.17129 34817 ft 390 kts 180°
2026-05-03 22:43 57.74188 12.18522 34808 ft 390 kts 180°
2026-05-03 22:44 57.68819 12.19909 34808 ft 389 kts 180°
2026-05-03 22:44 57.63484 12.21288 34815 ft 390 kts 180°
2026-05-03 22:45 57.58114 12.22648 34807 ft 390 kts 180°
2026-05-03 22:45 57.52740 12.24004 34819 ft 390 kts 180°
2026-05-03 22:46 57.47366 12.25389 34829 ft 390 kts 180°
2026-05-03 22:46 57.41995 12.26760 34830 ft 390 kts 180°
2026-05-03 22:47 57.36624 12.28115 34832 ft 390 kts 180°
2026-05-03 22:47 57.31247 12.29466 34811 ft 390 kts 180°
2026-05-03 22:48 57.25878 12.30818 34820 ft 389 kts 180°
2026-05-03 22:48 57.20506 12.32152 34828 ft 389 kts 180°
2026-05-03 22:48 57.17819 12.32823 34710 ft 390 kts 180°
2026-05-03 22:49 57.15134 12.33499 34469 ft 389 kts 180°
2026-05-03 22:49 57.12462 12.34177 34228 ft 387 kts 180°
2026-05-03 22:49 57.09799 12.34845 33990 ft 386 kts 180°
2026-05-03 22:49 57.07146 12.35505 33741 ft 384 kts 180°
2026-05-03 22:50 57.04496 12.36161 33463 ft 384 kts 180°
2026-05-03 22:50 57.01849 12.36815 33160 ft 384 kts 180°
2026-05-03 22:50 56.99199 12.37472 32886 ft 385 kts 180°
2026-05-03 22:50 56.96546 12.38134 32621 ft 385 kts 180°
2026-05-03 22:51 56.94265 12.38703 32344 ft 382 kts 180°
2026-05-03 22:51 56.91639 12.39355 31853 ft 379 kts 179°
2026-05-03 22:51 56.89029 12.39998 31332 ft 377 kts 179°
2026-05-03 22:51 56.86434 12.40636 30863 ft 375 kts 179°
2026-05-03 22:52 56.83853 12.41265 30243 ft 375 kts 179°
2026-05-03 22:52 56.81225 12.41896 29132 ft 386 kts 178°
2026-05-03 22:52 56.78544 12.42538 27988 ft 391 kts 178°
2026-05-03 22:52 56.75832 12.43193 26858 ft 395 kts 177°
2026-05-03 22:53 56.73094 12.43860 25783 ft 398 kts 177°
2026-05-03 22:53 56.70341 12.44535 24752 ft 400 kts 176°
2026-05-03 22:53 56.67572 12.45216 23743 ft 402 kts 176°
2026-05-03 22:53 56.64799 12.45897 22638 ft 402 kts 176°
2026-05-03 22:54 56.62030 12.46575 21505 ft 402 kts 176°
2026-05-03 22:54 56.59266 12.47249 20407 ft 400 kts 176°
2026-05-03 22:54 56.56519 12.47915 19504 ft 395 kts 176°
2026-05-03 22:54 56.53837 12.48569 19004 ft 382 kts 176°
2026-05-03 22:55 56.51244 12.49207 18493 ft 371 kts 176°
2026-05-03 22:55 56.48725 12.49821 17960 ft 360 kts 177°
2026-05-03 22:55 56.46281 12.50415 17426 ft 349 kts 177°
2026-05-03 22:55 56.43903 12.50988 16932 ft 342 kts 177°
2026-05-03 22:56 56.41555 12.51546 16427 ft 339 kts 177°
2026-05-03 22:56 56.39225 12.52096 15908 ft 336 kts 177°
2026-05-03 22:56 56.36914 12.52643 15387 ft 334 kts 177°
2026-05-03 22:56 56.34614 12.53192 14854 ft 331 kts 177°
2026-05-03 22:57 56.32337 12.53734 14325 ft 329 kts 177°
2026-05-03 22:57 56.30072 12.54274 13793 ft 327 kts 177°
2026-05-03 22:57 56.27818 12.54808 13215 ft 326 kts 177°
2026-05-03 22:57 56.25580 12.55338 12675 ft 323 kts 177°
2026-05-03 22:58 56.23361 12.55863 12147 ft 320 kts 177°
2026-05-03 22:58 56.21163 12.56382 11617 ft 317 kts 176°
2026-05-03 22:58 56.18985 12.56900 11079 ft 314 kts 176°
2026-05-03 22:58 56.16830 12.57477 10584 ft 313 kts 172°
2026-05-03 22:59 56.14769 12.58510 10442 ft 301 kts 168°
2026-05-03 22:59 56.12829 12.59521 10321 ft 288 kts 169°
2026-05-03 22:59 56.10915 12.60504 10177 ft 278 kts 169°
2026-05-03 22:59 56.09073 12.61439 9919 ft 272 kts 170°
2026-05-03 23:00 56.07258 12.62354 9791 ft 270 kts 170°
2026-05-03 23:00 56.05450 12.63267 9666 ft 270 kts 170°
2026-05-03 23:00 56.03647 12.64179 9532 ft 269 kts 170°
2026-05-03 23:00 56.01872 12.65080 9338 ft 269 kts 169°
2026-05-03 23:01 56.00044 12.66007 8896 ft 270 kts 169°
2026-05-03 23:01 55.98234 12.66926 8488 ft 270 kts 169°
2026-05-03 23:01 55.96460 12.67831 8068 ft 270 kts 169°
2026-05-03 23:01 55.94665 12.68746 7782 ft 266 kts 169°
2026-05-03 23:02 55.92891 12.69651 7387 ft 264 kts 169°
2026-05-03 23:02 55.91136 12.70544 6986 ft 260 kts 169°
2026-05-03 23:02 55.89412 12.71419 6585 ft 256 kts 169°
2026-05-03 23:02 55.87707 12.72279 6165 ft 254 kts 169°
2026-05-03 23:03 55.86014 12.73130 5719 ft 252 kts 169°
2026-05-03 23:03 55.84313 12.73990 5286 ft 250 kts 168°
2026-05-03 23:03 55.82646 12.74836 4893 ft 249 kts 168°
2026-05-03 23:03 55.81013 12.75727 4709 ft 241 kts 162°
2026-05-03 23:04 55.79580 12.77210 4585 ft 238 kts 146°
2026-05-03 23:04 55.78443 12.79263 4466 ft 234 kts 137°
2026-05-03 23:04 55.77388 12.81416 4293 ft 229 kts 137°
2026-05-03 23:04 55.76314 12.83478 4061 ft 225 kts 145°
2026-05-03 23:05 55.74921 12.84454 3865 ft 214 kts 181°
2026-05-03 23:05 55.73528 12.83796 3692 ft 210 kts 213°
2026-05-03 23:05 55.72405 12.82094 3298 ft 217 kts 219°
2026-05-03 23:05 55.71268 12.80330 2950 ft 216 kts 219°
2026-05-03 23:06 55.70146 12.78587 2552 ft 214 kts 219°
2026-05-03 23:06 55.69053 12.76884 2145 ft 203 kts 219°
2026-05-03 23:06 55.68016 12.75269 1645 ft 195 kts 220°
2026-05-03 23:06 55.67031 12.73735 1280 ft 182 kts 219°
2026-05-03 23:07 55.66126 12.72327 1003 ft 163 kts 220°
2026-05-03 23:07 55.65309 12.71058 774 ft 151 kts 220°
2026-05-03 23:07 55.64529 12.69846 585 ft 148 kts 221°
2026-05-03 23:07 55.63752 12.68642 377 ft 149 kts 223°
2026-05-03 23:08 55.62970 12.67423 178 ft 149 kts 222°
2026-05-03 23:08 55.62453 12.66621 58 ft 149 kts 222°
2026-05-03 23:08 55.61735 12.65507 25 ft 121 kts 221°
2026-05-03 23:08 55.61235 12.64730 26 ft 71 kts 221°
2026-05-03 23:09 55.60943 12.64279 25 ft 54 kts 221°
2026-05-03 23:09 55.60735 12.63957 28 ft 32 kts 221°
2026-05-03 23:09 55.60722 12.63731 24 ft 23 kts 309°
2026-05-03 23:09 55.60846 12.63611 24 ft 23 kts 25°
2026-05-03 23:10 55.61003 12.63791 24 ft 24 kts 33°
2026-05-03 23:10 55.61075 12.63874 25 ft 14 kts 33°
2026-05-03 23:10 55.61175 12.63989 25 ft 21 kts 33°
2026-05-03 23:10 55.61317 12.64152 25 ft 25 kts 33°
2026-05-03 23:11 55.61410 12.64258 26 ft 14 kts 33°
2026-05-03 23:11 55.61511 12.64374 24 ft 21 kts 33°
2026-05-03 23:11 55.61651 12.64535 24 ft 21 kts 31°
2026-05-03 23:11 55.61779 12.64549 24 ft 22 kts 348°
2026-05-03 23:12 55.61932 12.64502 24 ft 19 kts 355°
2026-05-03 23:12 55.62072 12.64610 24 ft 25 kts 34°
2026-05-03 23:12 55.62181 12.64737 26 ft 14 kts 33°
2026-05-03 23:12 55.62272 12.64791 24 ft 14 kts 355°
2026-05-03 23:13 55.62373 12.64781 24 ft 14 kts 351°
2026-05-03 23:13 55.62437 12.64678 24 ft 12 kts 335°
2026-05-03 23:13 55.62522 12.64654 26 ft 13 kts 357°
2026-05-03 23:13 55.62608 12.64654 24 ft 8 kts
2026-05-03 23:14 55.62642 12.64622 24 ft 5 kts 289°
2026-05-03 23:14 55.62645 12.64586 24 ft 2 kts 278°
2026-05-03 23:14 55.62647 12.64564 24 ft 2 kts 281°
2026-05-03 23:14 55.62649 12.64552 24 ft 0 kts 281°